Location: Stonelick Lake State Park
(39.2170°N, 84.0850°W)
Time: 15:35:22
(UTC-04:00)

Daily predictions for brighter satellites

Satellite Brightness Start Highest point End
(mag) Time Altitude Azimuth Time Altitude Azimuth Time Altitude Azimuth
Cosmos 2016 Rocket 4.5 21:11:44 10° SSW 21:17:47 67° W 21:23:55 10° N
Cosmos 1743 3.2 21:17:16 10° N 21:20:54 41° E 21:24:30 10° SSE
H-2A R/B 3.7 21:18:34 10° ESE 21:21:40 17° ENE 21:24:50 10° NNE
Cosmos 2208 Rocket 4.1 21:16:30 10° SSW 21:21:41 83° WNW 21:26:53 10° NNE
Cosmos 1378 Rocket 3.7 21:20:21 10° S 21:24:39 78° W 21:28:58 10° N
GPS 2-05 Rocket1 4.2 21:24:24 10° SSW 21:26:56 20° SSE 21:29:29 10° ESE
SJ-11-01 4.4 21:24:12 10° SSE 21:28:53 67° ENE 21:33:36 10° N
Cosmos 1975 Rocket 3.1 21:26:58 10° S 21:31:11 55° E 21:35:24 10° NNE
Cosmos 2084 3.8 21:27:11 10° SW 21:31:31 70° NW 21:35:38 10° NNE
Cosmos 1725 Rocket 4.4 21:25:45 10° SSW 21:31:53 71° W 21:38:07 10° N
Okean 1 Rocket 3.4 21:30:45 10° NNW 21:35:03 66° W 21:39:20 10° S
Tsikada Rocket 4.3 21:32:19 10° N 21:38:45 78° W 21:45:09 10° S
ATLAS CENTAUR R/B 4.1 21:36:51 10° WNW 21:40:02 18° WSW 21:43:19 10° SSW
Meteor 2-4 Rocket 4.0 21:37:18 10° SSE 21:42:28 47° E 21:47:48 10° NNE
ARGOS 4.0 21:37:39 10° SE 21:42:29 35° ENE 21:47:20 10° N
Meteor 1-12 Rocket 4.4 21:36:29 10° N 21:42:30 82° E 21:48:31 10° S
Cosmos 1242 Rocket 2.5 21:39:07 10° N 21:42:46 77° E 21:46:20 10° SSE
Cosmos 540 Rocket 4.3 21:40:26 10° SSE 21:44:53 30° E 21:49:22 10° NE
YAOGAN 6 4.0 21:43:37 10° SSW 21:47:04 38° W 21:50:32 10° NNW
USA 186 3.6 21:44:53 10° SSW 21:47:51 32° W 21:50:57 10° NNW
Thor Agena Rocket 4.3 21:43:05 10° N 21:48:16 59° WNW 21:53:22 10° SSW
Cosmos 1544 Rocket 4.3 21:44:12 10° N 21:48:20 37° ENE 21:51:53 13° SE
Cosmos 2150 Rocket 4.4 21:43:10 10° N 21:48:25 52° ENE 21:53:01 13° SE
NOAA 11 4.2 21:44:55 10° SSE 21:50:24 87° ENE 21:55:52 10° NNW
Cosmos 2322 Rocket 2.2 21:46:35 10° NNW 21:52:14 88° WSW 21:57:49 10° SSE
Shenzhou-11 Module 2.0 21:49:17 10° WNW 21:52:15 76° NNE 21:54:34 15° ESE
Spot 2 Rocket 3.5 21:48:49 10° SSE 21:53:52 87° WSW 21:58:56 10° NNW
Lacrosse 5 rocket 2.5 21:50:10 10° NNW 21:54:09 34° NE 21:57:27 13° E
SJ 16-02 2.8 21:52:24 10° N 21:55:57 23° ENE 21:58:37 14° ESE
Cosmos 1763 Rocket 3.7 21:53:16 10° SSW 21:58:34 77° WNW 22:03:52 10° NNE
Cosmos 1937 Rocket 3.5 21:54:16 10° NNW 21:59:26 87° WSW 22:04:20 11° SSE
Tiangong 2 2.3 21:56:32 10° WNW 21:59:32 40° N 22:02:33 10° ENE
SL-16 R/B 2.5 21:57:29 10° NNW 22:03:07 68° WSW 22:08:42 10° S
Cosmos 1536 Rocket 4.2 22:01:18 14° SSE 22:04:41 38° E 22:08:49 10° NNE
ISS -0.6 22:04:29 10° NW 22:05:51 12° NNW 22:07:13 10° NNE
Cosmos 841 Rocket 3.5 22:00:47 10° SSW 22:06:01 86° ESE 22:11:20 10° NNE
Cosmos 292 Rocket 3.7 22:01:38 10° SSW 22:06:23 82° ESE 22:11:10 10° NNE
BREEZE M DEB (TANK) 3.4 21:55:31 10° WNW 22:06:38 75° NNE 22:09:21 19° ESE
Cosmos 2298 Rocket 4.0 22:04:46 10° NNW 22:10:06 89° WSW 22:14:30 15° SSE
Resurs 01 Rocket 3.1 22:10:21 10° SSW 22:14:22 35° W 22:18:25 10° NNW
USA 234 3.2 22:09:23 10° NE 22:15:59 83° SE 22:22:34 10° SW
Cosmos 1340 Rocket 2.8 22:12:17 10° S 22:16:20 87° E 22:20:26 10° N
CZ-4C R/B 3.9 22:10:39 10° NNW 22:17:10 36° NE 22:23:08 14° ESE
Cosmos 1072 Rocket 4.5 22:11:03 10° S 22:17:22 76° E 22:23:38 10° N
DELTA 2 R/B (1) 4.1 22:16:58 10° SSW 22:21:55 34° SSE 22:26:36 11° E
Cosmos 2219 4.3 22:20:18 21° SE 22:22:15 25° ESE 22:26:52 10° NE
USA 32 4.0 22:17:31 10° N 22:22:47 86° E 22:27:06 15° S
SL-08 RB Rocket 3.7 22:24:27 23° SSE 22:27:12 68° ENE 22:31:45 10° N
CSL-04 DEB 4.5 22:27:35 27° SSE 22:29:43 65° ENE 22:33:46 10° N
ERS-1 Rocket 3.1 22:27:39 24° SE 22:30:33 59° ENE 22:35:30 10° N
CENTAUR R/B 3.2 22:32:53 10° SW 22:38:43 55° NW 22:45:28 10° NNE
Cosmos 2360 Rocket 2.2 22:34:57 10° NNW 22:40:37 82° WSW 22:43:54 26° SSE
Cosmos 1025 Rocket 3.5 22:40:14 34° SE 22:41:28 43° E 22:45:37 10° NNE
Cosmos 2219 Rocket 3.3 22:38:18 10° N 22:43:13 31° ENE 22:45:43 22° E
Cosmos 1356 4.5 22:40:32 11° SSW 22:43:41 44° WNW 22:47:02 10° N
Meteor 1-15 Rocket 4.2 22:38:57 10° N 22:44:41 79° E 22:47:48 28° SSE
MetOp-A 4.5 22:43:50 19° S 22:47:38 62° WSW 22:52:58 10° NNW
Aureole 2 Rocket 3.9 22:48:27 10° NW 22:50:44 22° WSW 22:51:29 19° SW
CZ-2C R/B 4.5 22:50:58 21° E 22:52:53 26° ENE 22:57:28 10° N
Okean 2 3.3 22:53:27 38° S 22:54:59 81° E 22:59:11 10° N
SPOT 1/Viking Rocket 3.6 22:55:11 36° SE 22:57:13 64° ENE 23:02:20 10° N
Meteor 1-29 4.2 22:54:58 10° NNE 22:57:17 28° ENE 22:57:17 28° ENE
Cosmos 1455 Rocket 4.5 22:54:27 10° NNW 22:58:25 34° W 23:01:29 15° SSW
Cosmos 1125 Rocket 3.4 22:54:55 10° NNW 23:00:11 81° ENE 23:02:08 40° SSE
Cosmos 2034 Rocket 4.1 22:54:59 14° SSW 23:00:19 75° W 23:06:30 10° N
H-2A R/B 2.4 22:57:46 24° S 23:00:35 55° W 23:05:34 10° NNW
USA 245 3.5 23:00:38 44° SSW 23:01:41 68° WSW 23:06:09 10° NNW
Helios 1A 2.9 23:00:58 50° SSE 23:02:00 80° ENE 23:06:11 10° N
Landsat 7 4.0 23:02:11 42° SE 23:03:30 58° ENE 23:08:11 10° N
GPS 2-05 Rocket1 4.4 23:00:37 10° WSW 23:02:11 23° SW 23:02:11 23° SW
Cosmos 1356 Rocket 3.4 23:07:09 43° SSW 23:08:32 86° WNW 23:12:51 10° N
COSMOS 2455 3.7 23:14:03 30° E 23:14:03 30° E 23:18:50 10° NE
SL-16 R/B 4.5 23:11:44 10° NNE 23:13:56 12° NE 23:16:08 10° ENE
Cosmos 2333 Rocket 2.7 23:08:28 10° NNW 23:13:59 48° ENE 23:15:46 36° ESE
COSMOS 2428 2.6 23:11:14 10° NNW 23:16:56 81° ENE 23:18:42 46° SSE
Spot 1 3.9 23:19:22 61° E 23:19:37 63° ENE 23:23:39 10° N
Terra 1.9 23:21:33 52° ESE 23:22:18 59° ENE 23:27:00 10° N
Helios 1B rocket 2.4 23:19:42 10° N 23:23:52 80° WNW 23:24:34 59° SSW
Cosmos 1634 Rocket 4.0 23:23:15 41° SSE 23:25:30 70° E 23:31:48 10° NNE
SPOT 5 3.0 23:26:23 46° SSW 23:27:22 58° W 23:31:55 10° NNW
Cosmos 2297 Rocket 3.0 23:29:00 33° E 23:29:00 33° E 23:33:30 10° NE
Cosmos 1892 Rocket 4.0 23:31:41 47° ENE 23:31:41 47° ENE 23:35:27 10° NNE
Nimbus 7 Rocket 4.4 23:25:25 10° NNE 23:31:17 64° ESE 23:32:43 49° SSE
Cosmos 2227 Rocket 2.7 23:32:28 40° E 23:32:28 40° E 23:37:32 10° NE
Lacrosse 5 rocket 2.6 23:29:35 10° WNW 23:33:07 29° WSW 23:33:07 29° WSW
SJ 16-02 2.7 23:30:40 10° NW 23:34:33 30° W 23:35:37 27° SW
IGS 5A 3.3 23:35:34 83° SW 23:35:39 84° WSW 23:39:50 10° NNW
Tiangong 2 2.8 23:33:22 10° WNW 23:35:15 32° WNW 23:35:15 32° WNW
Cosmos 2228 3.6 23:34:46 10° N 23:38:31 43° ENE 23:38:31 43° ENE
Cosmos 2237 Rocket 2.8 23:35:18 10° N 23:40:44 43° ENE 23:41:55 38° E
ISS -0.4 23:43:04 10° N 23:43:32 10° N 23:44:00 10° NNE
Cosmos 2082 4.3 23:48:08 40° E 23:48:08 40° E 23:52:56 10° NE
Okean 1-7 Rocket 4.0 23:48:20 53° WSW 23:49:00 59° W 23:53:31 10° N
Cosmos 1726 Rocket 3.5 23:46:14 10° N 23:50:28 79° NNE 23:50:28 79° NNE
Cosmos 1544 4.1 23:48:29 10° NNW 23:51:33 43° WNW 23:51:33 43° WNW
